Wind_Speed
12 12 13 13 12 12 9 6 5 5 5 5 5 7 9 6 4 6 8 17 30 29 19 20 13 9 3 2 2 3 1 4 5 6 8 12 18 21 11 14 16 18 17 19 15
12 13 13 14 12 11 8 6 5 5 5 4 5 8 10 6 3 5 17 26 30 24 16 10 5 8 2 1 1 2 2 5 5 7 15 20 18 21 11 16 19 18 18 21 14
12 14 13 14 12 11 7 4 4 5 6 5 6 9 8 4 3 5 24 33 25 16 7 3 1 1 3 2 0 1 4 2 15 15 13 15 19 15 12 9 14 20 20 12 7
12 14 14 15 12 11 8 4 3 5 6 7 8 8 6 4 4 13 32 27 14 8 7 5 4 3 3 4 2 3 6 7 9 14 11 14 15 14 12 13 19 21 17 11 6
11 13 14 15 12 12 8 5 3 3 4 8 9 6 2 6 2 20 33 15 9 7 7 3 5 2 3 3 5 3 4 11 13 16 9 10 14 10 23 25 22 19 9 11 4
11 13 13 14 10 11 8 4 4 4 4 6 8 3 3 6 6 25 25 12 13 8 5 5 3 2 2 3 1 4 11 13 8 10 7 8 13 18 25 22 23 23 9 4 2
11 13 14 14 10 11 8 1 4 6 4 4 5 2 5 2 8 29 25 11 9 5 2 4 3 5 4 5 1 4 7 9 1 14 4 10 17 23 23 21 22 23 21 10 13
9 11 13 14 11 13 9 3 3 7 2 3 4 2 2 7 15 37 26 12 11 5 2 7 2 3 4 6 4 6 4 7 6 16 9 4 7 20 24 21 20 23 20 19 18
9 10 12 12 11 14 7 1 5 3 3 5 2 2 2 5 18 29 22 11 7 8 8 6 4 3 6 4 3 7 6 5 8 14 5 12 8 14 21 22 22 20 19 19 19
9 10 12 11 11 11 4 6 10 2 3 2 5 2 5 6 13 26 20 12 6 4 5 8 5 3 6 8 5 8 4 6 7 6 16 12 17 18 20 21 19 19 19 19 20
8 10 12 12 9 9 2 3 3 4 12 5 1 3 5 17 6 27 23 8 7 9 5 5 9 10 10 5 5 8 3 8 7 4 5 14 21 19 18 22 25 22 20 19 21
7 10 10 11 5 8 3 6 3 4 5 4 2 2 3 7 6 20 19 7 7 4 7 5 5 7 10 3 8 4 4 5 9 1 6 3 15 13 19 18 18 20 22 23 25
7 9 9 7 4 6 9 7 8 4 5 2 2 3 3 5 4 12 10 3 5 5 5 5 5 11 7 7 16 4 0 10 7 8 3 6 2 22 19 16 20 21 19 19 20
5 8 7 4 2 3 4 5 4 3 4 4 4 5 5 3 5 4 9 2 5 3 3 2 4 8 13 7 11 4 2 14 9 2 2 7 1 11 19 19 24 25 24 24 25
4 5 5 8 3 3 3 3 2 1 3 2 3 3 4 6 5 10 8 5 3 4 1 3 7 7 8 11 6 7 18 7 3 1 2 8 2 6 18 29 30 26 26 25 23
1 3 4 6 7 4 4 2 2 5 4 2 2 5 3 6 5 6 7 7 2 3 5 2 4 2 5 15 3 15 4 1 2 2 4 6 1 6 12 17 22 23 25 24 24
4 8 10 8 4 3 4 1 4 4 3 0 2 4 3 5 6 8 5 9 7 7 9 8 4 6 5 8 5 16 6 3 5 5 1 6 4 1 9 17 17 19 22 23 22
7 7 13 12 7 2 1 4 2 1 2 0 2 2 3 5 3 7 3 5 6 5 3 5 7 8 11 4 6 6 4 3 0 3 5 7 5 1 12 16 15 15 18 22 23
13 11 7 7 5 1 4 3 5 3 4 6 2 2 1 1 4 4 5 1 2 2 5 5 3 5 3 3 5 7 6 2 1 2 2 4 3 4 18 21 21 21 22 23 24
9 6 4 3 5 3 3 4 2 1 2 1 3 1 1 4 3 5 3 3 3 4 3 2 4 3 5 5 6 4 3 3 3 5 4 3 2 8 18 23 22 22 22 22 22
8 4 2 4 2 4 2 3 2 1 1 1 3 4 3 3 3 2 1 0 1 2 4 3 3 5 2 6 4 6 4 4 1 2 1 4 1 3 6 15 18 18 17 19 20
7 3 2 4 3 1 3 2 3 2 2 1 3 3 3 2 3 2 3 4 1 2 2 3 4 3 3 3 2 1 2 2 2 4 1 1 3 2 2 11 11 15 16 17 17
3 3 3 1 4 2 2 2 1 3 3 3 2 2 1 3 4 1 3 3 3 1 1 4 2 3 7 5 3 3 3 2 2 1 0 2 3 2 8 15 13 13 14 17 17
4 3 2 3 2 5 5 4 4 1 2 3 4 3 3 3 3 4 3 2 2 2 6 3 3 5 5 5 2 4 5 4 2 1 1 4 9 12 16 19 19 16 13 15 15
2 2 1 3 3 3 3 6 5 5 1 3 1 3 5 4 2 3 2 2 3 5 3 3 3 2 4 5 3 4 3 5 2 2 3 3 5 13 13 16 14 14 14 16 16
5 5 2 3 4 6 3 6 8 3 6 4 4 5 4 5 5 7 6 3 3 3 3 4 1 2 3 2 3 4 4 4 2 3 5 5 6 4 14 11 12 13 15 17 17
3 4 4 6 5 4 5 6 8 9 1 2 7 5 4 4 4 5 4 5 5 5 2 3 3 3 4 4 4 4 5 3 3 3 2 2 5 10 16 16 13 11 15 16 17
Wind_Direction
11 13 20 15 14 13 15 18 44 47 45 35 20 8 354 338 303 359 13 339 343 335 328 320 334 354 25 80 87 139 200 259 266 293 293 290 303 296 274 265 276 257 256 263 276
6 8 14 15 12 11 11 15 27 26 25 23 360 352 355 356 33 55 348 339 331 340 343 355 345 11 49 64 84 117 211 244 235 274 289 296 303 295 293 273 271 278 273 269 267
3 5 8 9 11 5 5 17 18 23 6 358 347 343 351 7 88 328 343 336 331 340 4 29 13 54 56 354 201 160 244 279 291 278 293 301 293 306 302 290 293 289 279 279 260
359 2 5 3 5 9 358 351 18 16 30 29 8 354 10 357 48 338 339 340 357 33 41 35 21 37 36 341 14 276 272 276 282 299 316 314 325 330 21 327 314 299 263 259 225
355 358 1 3 1 7 3 342 351 357 28 24 15 9 29 43 3 341 346 13 25 47 38 26 30 19 351 313 321 224 287 300 288 296 302 45 19 340 355 337 344 339 236 228 234
350 355 358 1 4 6 5 351 356 311 305 339 6 18 77 71 339 355 354 10 20 28 12 19 360 287 278 292 238 294 281 278 299 314 339 62 33 22 352 345 359 10 332 190 192
347 352 354 357 358 3 353 346 27 359 330 331 358 50 68 130 351 354 6 19 8 359 23 11 354 49 306 315 356 294 327 331 21 344 337 346 33 16 356 359 2 12 12 26 3
347 350 351 354 352 354 341 264 325 335 9 10 29 77 93 2 5 3 6 24 34 83 51 18 15 77 14 311 7 359 36 350 335 359 6 28 16 9 4 6 11 8 5 357 354
340 345 348 351 351 352 358 65 360 67 109 33 38 62 23 2 357 358 6 349 360 50 46 4 50 50 349 17 5 33 316 319 320 12 45 50 2 354 10 12 16 6 1 354 345
334 340 345 346 348 355 28 122 59 64 15 38 34 46 27 316 337 352 9 12 28 353 11 23 42 35 9 22 356 319 343 306 308 344 54 53 31 7 12 15 12 10 1 354 348
331 338 344 345 348 6 82 149 18 5 36 85 145 114 328 341 55 358 358 351 25 58 18 358 31 4 323 313 256 270 238 290 310 220 83 61 40 11 3 8 14 5 1 355 351
328 337 345 350 0 9 75 80 101 150 89 30 53 35 20 353 2 356 10 60 37 34 335 23 23 325 303 295 327 305 295 330 308 269 329 83 61 20 15 13 5 359 1 358 350
322 333 350 359 9 35 77 108 115 114 91 16 55 51 334 14 46 347 18 26 55 33 4 81 310 319 351 354 3 351 343 337 279 308 232 314 100 9 10 6 9 9 2 359 356
325 336 4 12 73 52 64 118 111 99 76 334 349 8 356 4 65 17 10 144 44 30 338 301 334 349 340 9 1 322 337 315 291 299 351 19 22 24 356 1 8 5 1 355 352
338 344 29 46 85 57 105 151 132 80 20 23 5 336 21 72 315 6 2 35 56 353 15 272 342 339 351 344 336 265 322 290 279 44 29 355 57 5 358 1 0 357 353 353 350
344 17 44 55 55 83 119 146 103 45 262 140 26 353 41 21 26 312 14 24 99 15 358 331 295 310 321 308 267 323 355 310 32 50 40 313 52 11 10 354 340 346 349 351 348
143 71 66 56 77 91 120 21 33 134 36 356 36 36 103 13 24 13 42 29 36 19 9 334 354 330 359 330 333 4 28 350 9 15 301 335 41 262 351 360 346 344 345 348 350
140 114 73 73 83 92 12 50 117 216 182 218 117 94 88 7 38 8 53 27 43 59 76 28 350 3 341 27 305 343 56 105 357 354 309 353 8 18 24 358 352 348 348 352 353
139 95 82 62 78 52 71 70 220 196 140 154 106 119 108 81 125 81 38 88 9 45 96 17 292 319 338 324 359 335 41 325 272 243 292 331 343 138 359 355 356 354 354 355 352
136 89 57 77 96 88 77 240 171 7 91 56 163 311 123 353 69 60 7 299 348 46 114 171 326 347 312 4 19 53 347 39 7 23 351 341 18 328 347 348 349 353 349 347 347
106 94 21 125 103 61 178 213 143 85 42 65 160 116 81 135 87 78 191 112 299 29 73 127 106 292 16 28 332 336 14 16 159 68 21 318 358 253 332 346 339 345 341 343 342
128 108 350 155 70 66 148 163 117 160 82 70 95 102 121 130 97 124 137 161 350 134 44 42 143 282 221 312 272 296 17 68 92 321 49 260 287 186 232 350 340 334 339 339 341
96 115 21 98 141 184 153 110 122 149 184 147 95 61 93 109 92 198 127 128 53 39 96 210 21 4 350 357 12 27 12 38 184 112 237 317 295 346 345 351 349 337 340 341 339
115 134 72 56 335 140 151 178 169 94 132 102 124 97 106 85 23 164 136 117 82 347 55 92 111 149 185 213 162 329 334 7 103 108 263 236 301 321 342 343 340 338 341 341 336
104 151 180 159 221 143 114 150 143 172 102 165 92 201 152 115 34 156 132 108 61 348 65 103 128 150 259 250 226 249 243 335 78 165 189 261 275 300 329 330 323 327 329 342 344
143 141 57 97 99 104 200 216 164 149 141 214 185 148 141 141 199 188 138 173 175 29 65 329 164 103 315 206 13 269 223 314 226 252 267 271 289 216 324 318 330 332 336 342 341
133 90 114 139 138 142 205 175 178 130 41 345 152 120 123 138 119 99 96 121 125 137 133 78 113 70 271 352 347 347 225 212 277 249 202 308 262 327 322 327 329 327 342 335 337
Height
835 833 830 829 827 825 824 823 822 822 821 821 821 820 820 818 817 818 817 819 814 808 803 798 798 798 798 800 801 805 806 807 802 796 784 778 780 773 774 770 768 760 757 754 753
835 833 830 828 828 826 824 824 823 822 821 820 821 820 818 817 818 819 820 817 812 806 802 800 799 798 801 802 803 805 809 801 795 790 785 780 779 771 773 767 764 759 753 751 751
835 833 831 829 827 826 825 824 823 822 821 821 821 820 818 817 818 820 818 814 809 806 803 802 801 801 803 804 804 807 802 798 790 786 782 780 776 767 767 764 764 760 748 748 747
835 833 831 830 828 825 826 825 823 823 821 821 821 819 817 815 828 821 817 810 806 805 804 804 803 804 807 806 805 806 799 797 789 783 782 782 775 775 779 775 762 749 746 745 745
835 833 830 829 828 825 825 825 823 823 822 821 820 819 818 822 826 822 815 810 807 805 806 805 805 807 807 807 806 806 801 792 786 784 778 784 784 781 780 771 758 742 738 738 743
834 833 831 828 826 825 824 825 823 823 822 821 820 819 819 828 826 821 814 811 809 808 808 806 806 804 806 808 809 802 799 792 786 780 775 785 787 784 784 774 760 748 740 740 742
833 833 831 828 826 824 823 823 822 822 822 821 820 819 821 828 825 822 814 811 810 809 809 808 807 806 807 806 806 803 800 791 785 782 775 775 784 797 791 780 768 757 753 745 745
831 831 830 828 826 824 822 821 821 821 821 820 820 820 824 823 824 819 813 812 811 809 809 809 807 809 810 806 806 808 808 804 788 785 778 770 786 797 794 782 775 764 759 757 751
831 829 828 826 824 823 821 821 821 820 821 821 821 821 826 824 823 822 817 816 812 812 811 811 810 817 816 818 810 819 821 819 801 793 787 788 798 802 796 788 781 776 770 764 755
830 829 826 824 822 821 820 821 821 822 822 822 823 826 828 833 828 826 817 816 815 814 815 817 820 823 821 822 828 820 825 820 811 801 798 797 805 801 796 796 790 785 777 770 758
828 827 826 824 822 819 819 821 824 825 826 834 836 834 834 833 830 827 821 818 819 823 832 828 829 835 835 830 829 826 826 821 806 799 801 806 804 806 798 793 786 786 783 776 765
826 825 824 823 823 820 818 821 826 828 837 834 834 834 835 834 836 832 825 827 833 840 838 832 835 834 828 822 822 819 817 815 802 798 800 799 809 813 805 805 802 797 787 780 768
826 824 822 822 822 821 820 824 824 827 837 835 835 836 837 835 844 842 838 840 844 846 850 838 833 830 826 820 820 815 817 819 819 803 798 793 797 806 805 806 803 800 798 793 787
824 824 821 821 823 823 825 828 826 827 856 836 836 839 840 836 845 844 843 844 845 850 850 842 837 835 826 821 825 823 814 818 810 799 795 798 793 807 809 807 803 800 799 795 785
823 825 822 821 823 826 829 828 827 829 850 842 841 840 843 844 852 847 848 843 851 851 850 843 844 843 831 827 827 817 815 814 804 798 803 805 801 811 811 799 805 808 805 798 793
822 824 822 822 824 828 828 830 828 846 844 836 844 848 845 853 855 856 854 849 852 853 852 851 849 846 839 828 824 817 817 809 808 811 822 822 821 831 832 839 828 823 813 806 796
822 824 822 822 827 829 830 831 847 846 838 837 845 852 859 862 860 867 880 878 877 878 896 869 848 848 846 835 824 822 831 832 818 832 817 821 818 850 846 842 836 828 818 809 802
821 823 824 824 827 831 832 840 843 829 837 852 851 852 857 866 870 875 874 885 882 894 911 893 861 861 851 849 849 842 849 869 849 837 825 814 832 836 841 839 839 832 825 813 806
821 822 824 826 827 832 838 853 833 832 841 845 848 844 856 863 871 878 890 896 886 891 901 912 867 864 855 854 853 845 861 859 867 863 838 835 835 839 836 838 836 831 823 818 811
818 823 828 828 828 832 843 830 843 849 849 847 834 856 843 867 872 886 902 890 891 884 887 894 898 867 861 853 856 858 858 864 875 869 860 836 851 847 850 845 841 836 832 826 822
815 823 831 829 830 835 843 843 848 849 849 848 853 860 865 878 878 890 895 887 885 887 885 899 915 878 867 875 882 873 883 875 876 872 868 853 845 864 867 859 851 848 843 835 827
814 823 831 829 837 852 847 847 846 851 850 852 856 857 864 870 885 894 884 885 882 885 888 886 916 914 886 879 882 882 881 885 878 875 876 874 846 860 869 863 860 854 846 840 834
811 826 830 830 833 847 847 846 846 850 851 852 856 858 864 870 884 877 878 882 881 884 886 893 923 920 896 891 879 885 883 886 888 894 892 875 840 856 859 859 861 856 851 842 834
809 822 830 831 837 834 840 843 847 848 851 851 858 861 867 872 879 881 879 882 882 882 881 889 912 911 904 902 909 910 898 892 893 883 905 892 879 855 861 859 855 854 855 850 841
802 815 814 831 836 837 833 839 844 846 849 852 857 855 862 885 893 883 879 883 884 885 889 903 912 919 898 891 888 885 901 895 907 894 888 883 897 873 872 868 861 854 847 844 841
799 808 818 827 832 838 838 843 833 844 847 851 852 857 863 868 869 876 885 890 885 892 912 909 911 906 912 882 892 883 880 890 891 886 890 889 878 877 871 867 860 856 850 845 839
793 796 797 825 833 833 832 831 830 838 846 848 851 857 860 862 869 871 875 882 882 897 915 922 926 924 917 901 917 897 904 897 893 900 893 882 873 874 868 865 863 858 853 846 840